Location: St. Louis
(38.6270°N, 90.1994°W)
Time: 12:28:34
(UTC-06:00)

Altair - Pass Details

Date: 01 December 2021
Orbit: 1501 x 1683 km, 47.2° (Epoch: 25 January)

Event Time Altitude Azimuth Distance (km) Brightness Sun altitude
Rises 16:24:02 0° 241° (WSW) 4,777 14.1 1.9°
Reaches altitude 10° 16:27:09 10° 242° (WSW) 3,769 12.1 1.3°
Maximum altitude 16:36:42 82° 331° (NNW) 1,549 7.6 -0.3°
Drops below altitude 10° 16:45:58 10° 60° (ENE) 3,665 8.8 -1.9°
Enters shadow 16:48:11 - 61° (ENE) 4,380 9.2 -2.3°
Sets 16:48:59 0° 61° (ENE) 4,640 - -2.4°
